Bridgeport, CT

8:18 AM EDT on April 29, 2017 (GMT -0400)
Sikorsky Memorial

Weather History for KBDR - February, 2013

Change the Weather History Date:

Saturday, February 2, 2013

  Actual Average Record
Temperature  
Mean Temperature 26 °F 31 °F  
Max Temperature 31 °F 38 °F 52 °F (1973)
Min Temperature 21 °F 24 °F -3 °F (1961)
Degree Days  
Heating Degree Days 39 34  
Month to date heating degree days 76 69  
Since 1 July heating degree days 2762 3045  
Cooling Degree Days 0 0  
Month to date cooling degree days 0 0  
Year to date cooling degree days 0 0  
Moisture  
Dew Point 12 °F    
Average Humidity 60    
Maximum Humidity 81    
Minimum Humidity 39    
Precipitation  
Precipitation 0.01 in 0.09 in 2.27 in (1973)
Month to date precipitation 0.01 0.18  
Year to date precipitation 2.01 3.28  
Snow  
Snow 0.10 in 0.20 in 10.30 in (2015)
Month to date snowfall 0.1 0.5  
Since 1 July snowfall 21.0 14.0  
Snow Depth 0.00 in    
Sea Level Pressure  
Sea Level Pressure 30.17 in    
Wind  
Wind Speed 10 mph (WSW)    
Max Wind Speed 18 mph    
Max Gust Speed 23 mph    
Visibility 8 miles    
Events Snow    
T = Trace of Precipitation, MM = Missing Value Source: NWS Daily Summary

Daily Weather History Graph

Daily Weather History Graph

Search for Another Location

Airport or City:

Trip Planner

Search our weather history database for the weather conditions in past years. The results will help you decide how hot, cold, wet, or windy it might be!

Date:

Astronomy

Feb. 02, 2013 Rise Set
Actual Time 7:02 AM EST 5:10 PM EST
Civil Twilight 6:33 AM EST 5:39 PM EST
Nautical Twilight 6:00 AM EST 6:12 PM EST
Astronomical Twilight 5:27 AM EST 6:45 PM EST
Moon No Moon Rise 10:06 AM EST (2/2)
Length of Visible Light 11h 06m
Length of Day
10h 08m
Waning Gibbous, 60% of the Moon is Illuminated
Feb 2
Waning Gibbous
Feb 3
Last Quarter
Feb 10
New
Feb 17
First Quarter
Feb 25
Full

Hourly Weather History & Observations

Time (EST) Temp. Windchill Dew Point Humidity Pressure Visibility Wind Dir Wind Speed Gust Speed Precip Events Conditions
12:52 AM 24.1 °F 13.7 °F 9.0 °F 53% 30.20 in 10.0 mi West 10.4 mph 18.4 mph N/A   Clear
1:52 AM 23.0 °F 13.1 °F 8.1 °F 53% 30.22 in 10.0 mi West 9.2 mph - N/A   Clear
2:52 AM 23.0 °F 11.7 °F 10.0 °F 58% 30.22 in 10.0 mi West 11.5 mph 16.1 mph N/A   Clear
3:52 AM 21.9 °F 11.0 °F 10.0 °F 60% 30.24 in 10.0 mi West 10.4 mph 17.3 mph N/A   Clear
4:52 AM 21.9 °F 11.7 °F 10.0 °F 60% 30.25 in 10.0 mi West 9.2 mph - N/A   Clear
5:52 AM 21.9 °F 14.5 °F 10.9 °F 63% 30.25 in 10.0 mi West 5.8 mph - N/A   Clear
6:52 AM 21.0 °F 11.4 °F 10.0 °F 63% 30.27 in 10.0 mi West 8.1 mph - N/A   Clear
7:52 AM 21.9 °F 11.7 °F 9.0 °F 58% 30.29 in 10.0 mi West 9.2 mph - N/A   Clear
8:52 AM 23.0 °F 13.9 °F 8.1 °F 53% 30.29 in 10.0 mi West 8.1 mph - N/A   Clear
9:52 AM 24.1 °F 16.0 °F 8.1 °F 51% 30.27 in 10.0 mi SW 6.9 mph - N/A   Clear
10:52 AM 26.1 °F 16.8 °F 9.0 °F 49% 30.26 in 10.0 mi SW 9.2 mph - N/A   Clear
11:52 AM 26.1 °F 16.2 °F 10.9 °F 53% 30.23 in 10.0 mi SW 10.4 mph - N/A   Clear
12:52 PM 28.0 °F 20.0 °F 12.0 °F 51% 30.19 in 10.0 mi SW 8.1 mph - N/A   Clear
1:52 PM 28.9 °F 19.8 °F 12.0 °F 49% 30.15 in 10.0 mi SW 10.4 mph - N/A   Clear
2:52 PM 30.2 °F 18.9 °F 8.6 °F 40% 30.13 in 10.0 mi SSW 16.1 mph 23.0 mph N/A   Partly Cloudy
3:52 PM 30.0 °F 18.7 °F 8.1 °F 40% 30.12 in 10.0 mi SW 16.1 mph - N/A   Clear
4:52 PM 28.9 °F 18.2 °F 8.1 °F 41% 30.10 in 10.0 mi SW 13.8 mph - N/A   Mostly Cloudy
5:52 PM 28.9 °F 18.6 °F 9.0 °F 43% 30.09 in 10.0 mi SW 12.7 mph - N/A   Mostly Cloudy
6:52 PM 28.9 °F 18.2 °F 9.0 °F 43% 30.09 in 10.0 mi SW 13.8 mph - N/A   Partly Cloudy
7:52 PM 28.0 °F 18.6 °F 10.9 °F 49% 30.09 in 10.0 mi West 10.4 mph - N/A   Overcast
8:52 PM 26.1 °F 17.6 °F 17.1 °F 69% 30.09 in 10.0 mi WNW 8.1 mph 16.1 mph N/A   Overcast
9:52 PM 25.0 °F 16.3 °F 19.0 °F 78% 30.10 in 4.0 mi WNW 8.1 mph - 0.00 in Snow Light Snow
10:09 PM 24.8 °F 16.1 °F 19.4 °F 80% 30.10 in 2.5 mi WNW 8.1 mph - 0.00 in Snow Light Snow
10:27 PM 24.8 °F 15.3 °F 19.4 °F 80% 30.10 in 3.0 mi WNW 9.2 mph - 0.00 in Snow Light Snow
10:49 PM 24.8 °F 16.9 °F 19.4 °F 80% 30.10 in 2.5 mi WNW 6.9 mph - 0.00 in Snow Light Snow
10:52 PM 24.1 °F 17.0 °F 19.9 °F 84% 30.09 in 3.0 mi WNW 5.8 mph - 0.01 in Snow Light Snow
11:27 PM 24.8 °F 19.1 °F 19.4 °F 80% 30.09 in 2.5 mi West 4.6 mph - 0.00 in Snow Light Snow
11:46 PM 24.8 °F 17.9 °F 19.4 °F 80% 30.08 in 3.0 mi WNW 5.8 mph - 0.00 in Snow Light Snow
11:52 PM 24.1 °F 18.2 °F 19.9 °F 84% 30.08 in 4.0 mi West 4.6 mph - 0.00 in Snow Light Snow